"datetime","temp","dp","rain_mm","uv","mb"
"2015-06-08 00:00:00",10.2,6.2,0.0,0.0,1032.9
"2015-06-08 00:01:00",10.2,6.2,0.0,0.0,1032.9
"2015-06-08 00:02:00",10.2,6.2,0.0,0.0,1032.9
"2015-06-08 00:03:00",10.2,6.2,0.0,0.0,1032.9
"2015-06-08 00:04:00",10.2,6.2,0.0,0.0,1032.9
"2015-06-08 00:05:00",10.2,6.1,0.0,0.0,1032.9
"2015-06-08 00:06:00",10.2,6.2,0.0,0.0,1032.9
"2015-06-08 00:07:00",10.2,6.0,0.0,0.0,1032.9
"2015-06-08 00:08:00",10.3,6.0,0.0,0.0,1032.9
"2015-06-08 00:09:00",10.3,6.0,0.0,0.0,1032.9
"2015-06-08 00:10:00",10.3,6.0,0.0,0.0,1032.9
"2015-06-08 00:11:00",10.3,6.0,0.0,0.0,1032.8
"2015-06-08 00:12:00",10.3,6.0,0.0,0.0,1032.8
"2015-06-08 00:13:00",10.3,6.0,0.0,0.0,1032.8
"2015-06-08 00:14:00",10.3,6.0,0.0,0.0,1032.8
"2015-06-08 00:15:00",10.3,5.8,0.0,0.0,1032.8
"2015-06-08 00:16:00",10.3,5.8,0.0,0.0,1032.8
"2015-06-08 00:17:00",10.2,5.8,0.0,0.0,1032.8
"2015-06-08 00:18:00",10.2,6.0,0.0,0.0,1032.8
"2015-06-08 00:19:00",10.2,6.0,0.0,0.0,1032.8
"2015-06-08 00:20:00",10.2,5.7,0.0,0.0,1032.8
"2015-06-08 00:21:00",10.2,5.7,0.0,0.0,1032.8
"2015-06-08 00:22:00",10.2,5.7,0.0,0.0,1032.8
"2015-06-08 00:23:00",10.2,5.9,0.0,0.0,1032.9
"2015-06-08 00:24:00",10.1,6.1,0.0,0.0,1032.9
"2015-06-08 00:25:00",10.1,6.0,0.0,0.0,1032.9
"2015-06-08 00:26:00",10.1,6.0,0.0,0.0,1032.9
"2015-06-08 00:27:00",10.0,6.0,0.0,0.0,1032.9
"2015-06-08 00:28:00",10.0,6.0,0.0,0.0,1032.9
"2015-06-08 00:29:00",10.0,6.0,0.0,0.0,1032.9
"2015-06-08 00:30:00",10.0,5.9,0.0,0.0,1032.9
"2015-06-08 00:31:00",9.9,5.7,0.0,0.0,1032.9
"2015-06-08 00:32:00",9.9,5.9,0.0,0.0,1032.9
"2015-06-08 00:33:00",9.9,5.8,0.0,0.0,1032.9
"2015-06-08 00:34:00",9.8,5.8,0.0,0.0,1033.0
"2015-06-08 00:35:00",9.8,5.8,0.0,0.0,1032.9
"2015-06-08 00:36:00",9.8,6.1,0.0,0.0,1032.9
"2015-06-08 00:37:00",9.8,5.9,0.0,0.0,1032.9
"2015-06-08 00:38:00",9.8,5.9,0.0,0.0,1033.0
"2015-06-08 00:39:00",9.8,5.9,0.0,0.0,1033.0
"2015-06-08 00:40:00",9.8,6.0,0.0,0.0,1033.0
"2015-06-08 00:41:00",9.8,6.0,0.0,0.0,1033.0
"2015-06-08 00:42:00",9.8,6.0,0.0,0.0,1033.0
"2015-06-08 00:43:00",9.8,5.8,0.0,0.0,1033.0
"2015-06-08 00:44:00",9.9,5.8,0.0,0.0,1033.0
"2015-06-08 00:45:00",9.8,6.0,0.0,0.0,1033.0
"2015-06-08 00:46:00",9.8,6.2,0.0,0.0,1033.0
"2015-06-08 00:47:00",9.8,6.0,0.0,0.0,1033.0
"2015-06-08 00:48:00",9.8,6.1,0.0,0.0,1033.0
"2015-06-08 00:49:00",9.7,6.1,0.0,0.0,1033.0
"2015-06-08 00:50:00",9.7,5.9,0.0,0.0,1033.0
"2015-06-08 00:51:00",9.7,5.9,0.0,0.0,1033.0
"2015-06-08 00:52:00",9.7,5.9,0.0,0.0,1033.1
"2015-06-08 00:53:00",9.8,5.9,0.0,0.0,1033.1
"2015-06-08 00:54:00",9.8,5.9,0.0,0.0,1033.1
"2015-06-08 00:55:00",9.8,5.9,0.0,0.0,1033.1
"2015-06-08 00:56:00",9.8,5.9,0.0,0.0,1033.1
"2015-06-08 00:57:00",9.8,5.9,0.0,0.0,1033.1
"2015-06-08 00:58:00",9.8,5.9,0.0,0.0,1033.1
"2015-06-08 00:59:00",9.7,6.1,0.0,0.0,1033.1
"2015-06-08 01:00:00",9.7,6.0,0.0,0.0,1033.1
"2015-06-08 01:01:00",9.7,6.0,0.0,0.0,1033.1
"2015-06-08 01:02:00",9.6,6.1,0.0,0.0,1033.1
"2015-06-08 01:03:00",9.6,6.1,0.0,0.0,1033.1
"2015-06-08 01:04:00",9.5,6.0,0.0,0.0,1033.1
"2015-06-08 01:05:00",9.5,5.9,0.0,0.0,1033.2
"2015-06-08 01:06:00",9.5,5.9,0.0,0.0,1033.1
"2015-06-08 01:07:00",9.5,5.9,0.0,0.0,1033.1
"2015-06-08 01:08:00",9.5,5.9,0.0,0.0,1033.1
"2015-06-08 01:09:00",9.5,6.0,0.0,0.0,1033.1
"2015-06-08 01:10:00",9.5,6.0,0.0,0.0,1033.1
"2015-06-08 01:11:00",9.4,6.1,0.0,0.0,1033.2
"2015-06-08 01:12:00",9.3,6.2,0.0,0.0,1033.2
"2015-06-08 01:13:00",9.3,6.2,0.0,0.0,1033.2
"2015-06-08 01:14:00",9.3,6.2,0.0,0.0,1033.1
"2015-06-08 01:15:00",9.2,6.1,0.0,0.0,1033.1
"2015-06-08 01:16:00",9.2,6.1,0.0,0.0,1033.1
"2015-06-08 01:17:00",9.2,5.9,0.0,0.0,1033.1
"2015-06-08 01:18:00",9.2,5.9,0.0,0.0,1033.1
"2015-06-08 01:19:00",9.2,5.9,0.0,0.0,1033.1
"2015-06-08 01:20:00",9.3,6.0,0.0,0.0,1033.2
"2015-06-08 01:21:00",9.3,6.0,0.0,0.0,1033.2
"2015-06-08 01:22:00",9.2,6.1,0.0,0.0,1033.1
"2015-06-08 01:23:00",9.2,6.3,0.0,0.0,1033.1
"2015-06-08 01:24:00",9.2,6.3,0.0,0.0,1033.2
"2015-06-08 01:25:00",9.1,6.2,0.0,0.0,1033.2
"2015-06-08 01:26:00",9.1,6.0,0.0,0.0,1033.1
"2015-06-08 01:27:00",9.1,6.2,0.0,0.0,1033.1
"2015-06-08 01:28:00",9.1,6.0,0.0,0.0,1033.1
"2015-06-08 01:29:00",9.2,6.1,0.0,0.0,1033.1
"2015-06-08 01:30:00",9.2,5.9,0.0,0.0,1033.1
"2015-06-08 01:31:00",9.2,6.1,0.0,0.0,1033.1
"2015-06-08 01:32:00",9.2,5.9,0.0,0.0,1033.1
"2015-06-08 01:33:00",9.2,5.9,0.0,0.0,1033.1
"2015-06-08 01:34:00",9.1,5.8,0.0,0.0,1033.2
"2015-06-08 01:35:00",9.0,5.9,0.0,0.0,1033.1
"2015-06-08 01:36:00",8.9,6.0,0.0,0.0,1033.2
"2015-06-08 01:37:00",8.9,6.0,0.0,0.0,1033.2
"2015-06-08 01:38:00",8.9,6.0,0.0,0.0,1033.1
"2015-06-08 01:39:00",8.9,6.0,0.0,0.0,1033.2
"2015-06-08 01:40:00",8.9,5.9,0.0,0.0,1033.2
"2015-06-08 01:41:00",8.9,5.9,0.0,0.0,1033.2
"2015-06-08 01:42:00",8.9,6.0,0.0,0.0,1033.1
"2015-06-08 01:43:00",8.9,6.0,0.0,0.0,1033.2
"2015-06-08 01:44:00",8.9,6.0,0.0,0.0,1033.2
"2015-06-08 01:45:00",8.9,6.0,0.0,0.0,1033.2
"2015-06-08 01:46:00",8.8,5.9,0.0,0.0,1033.2
"2015-06-08 01:47:00",8.8,5.9,0.0,0.0,1033.2
"2015-06-08 01:48:00",8.7,6.0,0.0,0.0,1033.2
"2015-06-08 01:49:00",8.7,5.9,0.0,0.0,1033.2
"2015-06-08 01:50:00",8.6,5.9,0.0,0.0,1033.2
"2015-06-08 01:51:00",8.6,5.9,0.0,0.0,1033.2
"2015-06-08 01:52:00",8.6,5.8,0.0,0.0,1033.2
"2015-06-08 01:53:00",8.6,6.0,0.0,0.0,1033.2
"2015-06-08 01:54:00",8.5,6.0,0.0,0.0,1033.2
"2015-06-08 01:55:00",8.5,5.9,0.0,0.0,1033.2
"2015-06-08 01:56:00",8.5,5.9,0.0,0.0,1033.2
"2015-06-08 01:57:00",8.4,5.9,0.0,0.0,1033.2
"2015-06-08 01:58:00",8.4,6.0,0.0,0.0,1033.2
"2015-06-08 01:59:00",8.3,5.9,0.0,0.0,1033.2
"2015-06-08 02:00:00",8.3,5.9,0.0,0.0,1033.2
"2015-06-08 02:01:00",8.3,5.9,0.0,0.0,1033.2
"2015-06-08 02:02:00",8.3,6.0,0.0,0.0,1033.2
"2015-06-08 02:03:00",8.3,5.8,0.0,0.0,1033.2
"2015-06-08 02:04:00",8.3,6.0,0.0,0.0,1033.2
"2015-06-08 02:05:00",8.3,5.9,0.0,0.0,1033.2
"2015-06-08 02:06:00",8.3,5.8,0.0,0.0,1033.2
"2015-06-08 02:07:00",8.3,5.8,0.0,0.0,1033.2
"2015-06-08 02:08:00",8.3,5.8,0.0,0.0,1033.2
"2015-06-08 02:09:00",8.3,5.7,0.0,0.0,1033.2
"2015-06-08 02:10:00",8.3,5.7,0.0,0.0,1033.2
"2015-06-08 02:11:00",8.3,5.7,0.0,0.0,1033.2
"2015-06-08 02:12:00",8.3,5.7,0.0,0.0,1033.3
"2015-06-08 02:13:00",8.2,5.7,0.0,0.0,1033.3
"2015-06-08 02:14:00",8.2,5.7,0.0,0.0,1033.3
"2015-06-08 02:15:00",8.2,5.7,0.0,0.0,1033.3
"2015-06-08 02:16:00",8.2,5.8,0.0,0.0,1033.3
"2015-06-08 02:17:00",8.1,5.7,0.0,0.0,1033.3
"2015-06-08 02:18:00",8.0,5.7,0.0,0.0,1033.3
"2015-06-08 02:19:00",8.0,5.6,0.0,0.0,1033.3
"2015-06-08 02:20:00",7.9,5.6,0.0,0.0,1033.3
"2015-06-08 02:21:00",7.9,5.7,0.0,0.0,1033.3
"2015-06-08 02:22:00",7.9,5.7,0.0,0.0,1033.2
"2015-06-08 02:23:00",7.9,5.7,0.0,0.0,1033.2
"2015-06-08 02:24:00",7.9,5.7,0.0,0.0,1033.2
"2015-06-08 02:25:00",7.9,5.7,0.0,0.0,1033.2
"2015-06-08 02:26:00",7.9,5.7,0.0,0.0,1033.2
"2015-06-08 02:27:00",7.8,5.6,0.0,0.0,1033.2
"2015-06-08 02:28:00",7.8,5.6,0.0,0.0,1033.2
"2015-06-08 02:29:00",7.8,5.6,0.0,0.0,1033.2
"2015-06-08 02:30:00",7.8,5.6,0.0,0.0,1033.2
"2015-06-08 02:31:00",7.8,5.6,0.0,0.0,1033.2
"2015-06-08 02:32:00",7.8,5.6,0.0,0.0,1033.2
"2015-06-08 02:33:00",7.8,5.6,0.0,0.0,1033.2
"2015-06-08 02:34:00",7.8,5.6,0.0,0.0,1033.2
"2015-06-08 02:35:00",7.8,5.6,0.0,0.0,1033.2
"2015-06-08 02:36:00",7.8,5.6,0.0,0.0,1033.1
"2015-06-08 02:37:00",7.8,5.6,0.0,0.0,1033.1
"2015-06-08 02:38:00",7.8,5.6,0.0,0.0,1033.1
"2015-06-08 02:39:00",7.8,5.6,0.0,0.0,1033.1
"2015-06-08 02:40:00",7.7,5.5,0.0,0.0,1033.2
"2015-06-08 02:41:00",7.7,5.5,0.0,0.0,1033.1
"2015-06-08 02:42:00",7.6,5.6,0.0,0.0,1033.1
"2015-06-08 02:43:00",7.6,5.6,0.0,0.0,1033.2
"2015-06-08 02:44:00",7.5,5.5,0.0,0.0,1033.2
"2015-06-08 02:45:00",7.5,5.5,0.0,0.0,1033.2
"2015-06-08 02:46:00",7.5,5.4,0.0,0.0,1033.2
"2015-06-08 02:47:00",7.4,5.4,0.0,0.0,1033.2
"2015-06-08 02:48:00",7.4,5.4,0.0,0.0,1033.2
"2015-06-08 02:49:00",7.3,5.5,0.0,0.0,1033.2
"2015-06-08 02:50:00",7.3,5.5,0.0,0.0,1033.2
"2015-06-08 02:51:00",7.3,5.3,0.0,0.0,1033.2
"2015-06-08 02:52:00",7.3,5.2,0.0,0.0,1033.2
"2015-06-08 02:53:00",7.2,5.4,0.0,0.0,1033.2
"2015-06-08 02:54:00",7.2,5.4,0.0,0.0,1033.3
"2015-06-08 02:55:00",7.2,5.3,0.0,0.0,1033.3
"2015-06-08 02:56:00",7.2,5.3,0.0,0.0,1033.2
"2015-06-08 02:57:00",7.1,5.3,0.0,0.0,1033.2
"2015-06-08 02:58:00",7.1,5.2,0.0,0.0,1033.2
"2015-06-08 02:59:00",7.1,5.2,0.0,0.0,1033.2
"2015-06-08 03:00:00",7.0,5.3,0.0,0.0,1033.2
"2015-06-08 03:01:00",7.0,5.3,0.0,0.0,1033.2
"2015-06-08 03:02:00",7.0,5.3,0.0,0.0,1033.2
"2015-06-08 03:03:00",7.0,5.3,0.0,0.0,1033.2
"2015-06-08 03:04:00",7.0,5.3,0.0,0.0,1033.2
"2015-06-08 03:05:00",7.0,5.3,0.0,0.0,1033.2
"2015-06-08 03:06:00",7.1,5.4,0.0,0.0,1033.2
"2015-06-08 03:07:00",7.1,5.4,0.0,0.0,1033.2
"2015-06-08 03:08:00",7.1,5.4,0.0,0.0,1033.2
"2015-06-08 03:09:00",7.1,5.2,0.0,0.0,1033.2
"2015-06-08 03:10:00",7.1,5.2,0.0,0.0,1033.1
"2015-06-08 03:11:00",7.1,5.2,0.0,0.0,1033.1
"2015-06-08 03:12:00",7.1,5.2,0.0,0.0,1033.1
"2015-06-08 03:13:00",7.0,5.1,0.0,0.0,1033.2
"2015-06-08 03:14:00",7.0,5.1,0.0,0.0,1033.2
"2015-06-08 03:15:00",6.9,5.0,0.0,0.0,1033.2
"2015-06-08 03:16:00",6.8,5.0,0.0,0.0,1033.2
"2015-06-08 03:17:00",6.8,4.9,0.0,0.0,1033.2
"2015-06-08 03:18:00",6.7,4.8,0.0,0.0,1033.2
"2015-06-08 03:19:00",6.6,5.0,0.0,0.0,1033.2
"2015-06-08 03:20:00",6.6,4.9,0.0,0.0,1033.2
"2015-06-08 03:21:00",6.6,4.9,0.0,0.0,1033.2
"2015-06-08 03:22:00",6.6,4.9,0.0,0.0,1033.2
"2015-06-08 03:23:00",6.6,4.9,0.0,0.0,1033.2
"2015-06-08 03:24:00",6.5,4.9,0.0,0.0,1033.2
"2015-06-08 03:25:00",6.5,4.8,0.0,0.0,1033.1
"2015-06-08 03:26:00",6.5,5.0,0.0,0.0,1033.1
"2015-06-08 03:27:00",6.5,5.0,0.0,0.0,1033.1
"2015-06-08 03:28:00",6.5,5.0,0.0,0.0,1033.1
"2015-06-08 03:29:00",6.5,5.0,0.0,0.0,1033.1
"2015-06-08 03:30:00",6.5,5.0,0.0,0.0,1033.1
"2015-06-08 03:31:00",6.5,5.0,0.0,0.0,1033.1
"2015-06-08 03:32:00",6.4,4.9,0.0,0.0,1033.1
"2015-06-08 03:33:00",6.4,4.8,0.0,0.0,1033.1
"2015-06-08 03:34:00",6.3,4.8,0.0,0.0,1033.1
"2015-06-08 03:35:00",6.3,4.8,0.0,0.0,1033.1
"2015-06-08 03:36:00",6.3,4.8,0.0,0.0,1033.1
"2015-06-08 03:37:00",6.4,5.0,0.0,0.0,1033.0
"2015-06-08 03:38:00",6.4,5.1,0.0,0.0,1033.0
"2015-06-08 03:39:00",6.4,4.9,0.0,0.0,1033.0
"2015-06-08 03:40:00",6.4,4.9,0.0,0.0,1033.0
"2015-06-08 03:41:00",6.4,4.8,0.0,0.0,1033.0
"2015-06-08 03:42:00",6.3,4.8,0.0,0.0,1033.0
"2015-06-08 03:43:00",6.3,4.8,0.0,0.0,1033.1
"2015-06-08 03:44:00",6.3,4.8,0.0,0.0,1033.1
"2015-06-08 03:45:00",6.3,4.7,0.0,0.0,1033.1
"2015-06-08 03:46:00",6.2,4.7,0.0,0.0,1033.1
"2015-06-08 03:47:00",6.2,4.8,0.0,0.0,1033.0
"2015-06-08 03:48:00",6.2,4.8,0.0,0.0,1033.0
"2015-06-08 03:49:00",6.2,4.8,0.0,0.0,1033.0
"2015-06-08 03:50:00",6.2,4.9,0.0,0.0,1033.0
"2015-06-08 03:51:00",6.3,4.9,0.0,0.0,1033.0
"2015-06-08 03:52:00",6.3,4.9,0.0,0.0,1033.0
"2015-06-08 03:53:00",6.3,4.9,0.0,0.0,1033.0
"2015-06-08 03:54:00",6.3,4.9,0.0,0.0,1033.0
"2015-06-08 03:55:00",6.2,4.9,0.0,0.0,1033.0
"2015-06-08 03:56:00",6.2,4.9,0.0,0.0,1033.0
"2015-06-08 03:57:00",6.2,4.8,0.0,0.0,1033.0
"2015-06-08 03:58:00",6.2,4.8,0.0,0.0,1033.0
"2015-06-08 03:59:00",6.2,4.8,0.0,0.0,1033.0
"2015-06-08 04:00:00",6.1,4.8,0.0,0.0,1033.0
"2015-06-08 04:01:00",6.1,4.8,0.0,0.0,1032.9
"2015-06-08 04:02:00",6.1,4.8,0.0,0.0,1032.9
"2015-06-08 04:03:00",6.1,4.8,0.0,0.0,1033.0
"2015-06-08 04:04:00",6.1,4.8,0.0,0.0,1033.0
"2015-06-08 04:05:00",6.1,4.9,0.0,0.0,1032.9
"2015-06-08 04:06:00",6.2,4.9,0.0,0.0,1032.9
"2015-06-08 04:07:00",6.2,4.8,0.0,0.0,1032.9
"2015-06-08 04:08:00",6.1,4.8,0.0,0.0,1032.9
"2015-06-08 04:09:00",6.1,4.8,0.0,0.0,1032.9
"2015-06-08 04:10:00",6.1,4.8,0.0,0.0,1032.9
"2015-06-08 04:11:00",6.1,4.7,0.0,0.0,1032.9
"2015-06-08 04:12:00",6.1,4.7,0.0,0.0,1032.9
"2015-06-08 04:13:00",6.1,4.7,0.0,0.0,1032.9
"2015-06-08 04:14:00",6.1,4.7,0.0,0.0,1032.9
"2015-06-08 04:15:00",6.1,4.7,0.0,0.0,1032.9
"2015-06-08 04:16:00",6.0,4.6,0.0,0.0,1032.9
"2015-06-08 04:17:00",6.0,4.6,0.0,0.0,1032.8
"2015-06-08 04:18:00",5.9,4.6,0.0,0.0,1032.8
"2015-06-08 04:19:00",6.0,4.6,0.0,0.0,1032.9
"2015-06-08 04:20:00",6.0,4.8,0.0,0.0,1032.9
"2015-06-08 04:21:00",6.0,4.8,0.0,0.0,1032.9
"2015-06-08 04:22:00",6.0,4.6,0.0,0.0,1032.9
"2015-06-08 04:23:00",6.0,4.6,0.0,0.0,1032.9
"2015-06-08 04:24:00",5.9,4.6,0.0,0.0,1032.9
"2015-06-08 04:25:00",5.9,4.6,0.0,0.0,1032.9
"2015-06-08 04:26:00",5.9,4.7,0.0,0.0,1032.9
"2015-06-08 04:27:00",5.9,4.7,0.0,0.0,1032.9
"2015-06-08 04:28:00",6.0,4.8,0.0,0.0,1032.9
"2015-06-08 04:29:00",6.0,4.8,0.0,0.0,1032.9
"2015-06-08 04:30:00",6.0,4.8,0.0,0.0,1033.0
"2015-06-08 04:31:00",6.0,4.8,0.0,0.0,1033.0
"2015-06-08 04:32:00",6.0,4.8,0.0,0.0,1033.0
"2015-06-08 04:33:00",6.0,4.8,0.0,0.0,1033.0
"2015-06-08 04:34:00",6.0,4.8,0.0,0.0,1032.9
"2015-06-08 04:35:00",6.0,4.8,0.0,0.0,1032.9
"2015-06-08 04:36:00",6.0,4.8,0.0,0.0,1032.9
"2015-06-08 04:37:00",6.0,4.8,0.0,0.0,1032.9
"2015-06-08 04:38:00",6.1,4.9,0.0,0.0,1032.9
"2015-06-08 04:39:00",6.1,4.7,0.0,0.0,1032.9
"2015-06-08 04:40:00",6.1,4.9,0.0,0.0,1032.9
"2015-06-08 04:41:00",6.1,4.9,0.0,0.0,1033.0
"2015-06-08 04:42:00",6.1,4.7,0.0,0.0,1033.0
"2015-06-08 04:43:00",6.1,4.9,0.0,0.0,1033.0
"2015-06-08 04:44:00",6.1,4.7,0.0,0.0,1033.0
"2015-06-08 04:45:00",6.0,4.7,0.0,0.0,1032.9
"2015-06-08 04:46:00",6.0,4.6,0.0,0.0,1032.9
"2015-06-08 04:47:00",6.0,4.6,0.0,0.0,1033.0
"2015-06-08 04:48:00",5.9,4.6,0.0,0.0,1033.0
"2015-06-08 04:49:00",5.9,4.6,0.0,0.0,1033.0
"2015-06-08 04:50:00",5.9,4.6,0.0,0.0,1033.0
"2015-06-08 04:51:00",5.9,4.5,0.0,0.0,1033.0
"2015-06-08 04:52:00",5.9,4.5,0.0,0.0,1033.0
"2015-06-08 04:53:00",5.8,4.5,0.0,0.0,1033.0
"2015-06-08 04:54:00",5.9,4.7,0.0,0.0,1033.0
"2015-06-08 04:55:00",5.9,4.7,0.0,0.0,1033.0
"2015-06-08 04:56:00",5.9,4.7,0.0,0.0,1033.0
"2015-06-08 04:57:00",5.9,4.7,0.0,0.0,1033.0
"2015-06-08 04:58:00",5.9,4.7,0.0,0.0,1033.0
"2015-06-08 04:59:00",5.9,4.7,0.0,0.0,1033.0
"2015-06-08 05:00:00",5.9,4.7,0.0,0.0,1033.0
"2015-06-08 05:01:00",5.9,4.7,0.0,0.0,1033.0
"2015-06-08 05:02:00",5.9,4.7,0.0,0.0,1033.0
"2015-06-08 05:03:00",5.9,4.7,0.0,0.0,1033.0
"2015-06-08 05:04:00",5.9,4.7,0.0,0.0,1033.0
"2015-06-08 05:05:00",5.9,4.7,0.0,0.0,1033.0
"2015-06-08 05:06:00",5.9,4.7,0.0,0.0,1033.0
"2015-06-08 05:07:00",5.9,4.6,0.0,0.0,1033.0
"2015-06-08 05:08:00",5.9,4.5,0.0,0.0,1033.0
"2015-06-08 05:09:00",5.9,4.7,0.0,0.0,1033.0
"2015-06-08 05:10:00",5.9,4.7,0.0,0.0,1033.0
"2015-06-08 05:11:00",5.9,4.7,0.0,0.0,1033.0
"2015-06-08 05:12:00",5.9,4.7,0.0,0.0,1033.0
"2015-06-08 05:13:00",5.9,4.7,0.0,0.0,1033.0
"2015-06-08 05:14:00",5.9,4.7,0.0,0.0,1033.1
"2015-06-08 05:15:00",5.9,4.7,0.0,0.0,1033.1
"2015-06-08 05:16:00",5.9,4.7,0.0,0.0,1033.0
"2015-06-08 05:17:00",5.9,4.7,0.0,0.0,1033.0
"2015-06-08 05:18:00",5.9,4.7,0.0,0.0,1033.0
"2015-06-08 05:19:00",5.9,4.7,0.0,0.0,1033.1
"2015-06-08 05:20:00",5.9,4.7,0.0,0.0,1033.1
"2015-06-08 05:21:00",6.0,4.8,0.0,0.0,1033.0
"2015-06-08 05:22:00",6.0,4.8,0.0,0.0,1033.0
"2015-06-08 05:23:00",6.0,4.8,0.0,0.0,1033.0
"2015-06-08 05:24:00",6.0,4.8,0.0,0.0,1033.0
"2015-06-08 05:25:00",6.0,4.8,0.0,0.0,1033.0
"2015-06-08 05:26:00",6.0,4.6,0.0,0.0,1033.0
"2015-06-08 05:27:00",6.0,4.6,0.0,0.0,1033.0
"2015-06-08 05:28:00",6.0,4.6,0.0,0.0,1033.0
"2015-06-08 05:29:00",6.0,4.6,0.0,0.0,1033.0
"2015-06-08 05:30:00",6.0,4.6,0.0,0.0,1033.0
"2015-06-08 05:31:00",6.0,4.6,0.0,0.0,1032.9
"2015-06-08 05:32:00",6.0,4.6,0.0,0.0,1032.9
"2015-06-08 05:33:00",6.0,4.6,0.0,0.0,1033.0
"2015-06-08 05:34:00",6.0,4.7,0.0,0.0,1033.0
"2015-06-08 05:35:00",6.1,4.7,0.0,0.0,1033.0
"2015-06-08 05:36:00",6.0,4.7,0.0,0.0,1032.9
"2015-06-08 05:37:00",6.1,4.7,0.0,0.0,1033.0
"2015-06-08 05:38:00",6.1,4.7,0.0,0.0,1033.0
"2015-06-08 05:39:00",6.1,4.7,0.0,0.0,1033.0
"2015-06-08 05:40:00",6.1,4.7,0.0,0.0,1033.0
"2015-06-08 05:41:00",6.1,4.7,0.0,0.0,1033.0
"2015-06-08 05:42:00",6.1,4.7,0.0,0.0,1033.0
"2015-06-08 05:43:00",6.1,4.7,0.0,0.0,1033.0
"2015-06-08 05:44:00",6.1,4.9,0.0,0.0,1033.0
"2015-06-08 05:45:00",6.1,4.9,0.0,0.0,1033.0
"2015-06-08 05:46:00",6.1,4.7,0.0,0.0,1033.0
"2015-06-08 05:47:00",6.1,4.7,0.0,0.0,1033.0
"2015-06-08 05:48:00",6.1,4.8,0.0,0.0,1033.0
"2015-06-08 05:49:00",6.1,4.9,0.0,0.0,1033.1
"2015-06-08 05:50:00",6.1,4.9,0.0,0.0,1033.1
"2015-06-08 05:51:00",6.2,5.0,0.0,0.0,1033.1
"2015-06-08 05:52:00",6.2,4.8,0.0,0.0,1033.1
"2015-06-08 05:53:00",6.2,4.8,0.0,0.0,1033.1
"2015-06-08 05:54:00",6.2,5.0,0.0,0.0,1033.1
"2015-06-08 05:55:00",6.3,5.1,0.0,0.0,1033.1
"2015-06-08 05:56:00",6.3,5.1,0.0,0.0,1033.1
"2015-06-08 05:57:00",6.3,5.1,0.0,0.0,1033.1
"2015-06-08 05:58:00",6.3,5.0,0.0,0.0,1033.1
"2015-06-08 05:59:00",6.3,5.0,0.0,0.0,1033.1
"2015-06-08 06:00:00",6.4,5.0,0.0,0.0,1033.1
"2015-06-08 06:01:00",6.4,5.1,0.0,0.0,1033.1
"2015-06-08 06:02:00",6.4,5.1,0.0,0.0,1033.2
"2015-06-08 06:03:00",6.4,5.1,0.0,0.0,1033.2
"2015-06-08 06:04:00",6.4,5.1,0.0,0.0,1033.2
"2015-06-08 06:05:00",6.5,5.1,0.0,0.0,1033.2
"2015-06-08 06:06:00",6.5,5.1,0.0,0.0,1033.2
"2015-06-08 06:07:00",6.5,5.1,0.0,0.0,1033.2
"2015-06-08 06:08:00",6.5,5.2,0.0,0.0,1033.2
"2015-06-08 06:09:00",6.6,5.2,0.0,0.0,1033.2
"2015-06-08 06:10:00",6.6,5.2,0.0,0.0,1033.2
"2015-06-08 06:11:00",6.6,5.2,0.0,0.0,1033.2
"2015-06-08 06:12:00",6.6,5.2,0.0,0.0,1033.2
"2015-06-08 06:13:00",6.6,5.2,0.0,0.0,1033.2
"2015-06-08 06:14:00",6.6,5.2,0.0,0.0,1033.2
"2015-06-08 06:15:00",6.6,5.3,0.0,0.0,1033.1
"2015-06-08 06:16:00",6.7,5.3,0.0,0.0,1033.1
"2015-06-08 06:17:00",6.7,5.3,0.0,0.0,1033.1
"2015-06-08 06:18:00",6.7,5.3,0.0,0.0,1033.1
"2015-06-08 06:19:00",6.7,5.3,0.0,0.0,1033.2
"2015-06-08 06:20:00",6.7,5.4,0.0,0.0,1033.2
"2015-06-08 06:21:00",6.7,5.4,0.0,0.0,1033.2
"2015-06-08 06:22:00",6.8,5.2,0.0,0.0,1033.2
"2015-06-08 06:23:00",6.8,5.3,0.0,0.0,1033.2
"2015-06-08 06:24:00",6.8,5.3,0.0,0.0,1033.2
"2015-06-08 06:25:00",6.8,5.3,0.0,0.0,1033.2
"2015-06-08 06:26:00",6.8,5.3,0.0,0.0,1033.2
"2015-06-08 06:27:00",6.8,5.3,0.0,0.0,1033.2
"2015-06-08 06:28:00",6.8,5.3,0.0,0.0,1033.2
"2015-06-08 06:29:00",6.9,5.4,0.0,0.0,1033.2
"2015-06-08 06:30:00",6.9,5.4,0.0,0.0,1033.2
"2015-06-08 06:31:00",7.0,5.4,0.0,0.0,1033.2
"2015-06-08 06:32:00",7.0,5.5,0.0,0.0,1033.2
"2015-06-08 06:33:00",7.0,5.5,0.0,0.0,1033.3
"2015-06-08 06:34:00",7.1,5.5,0.0,0.0,1033.3
"2015-06-08 06:35:00",7.1,5.5,0.0,0.0,1033.3
"2015-06-08 06:36:00",7.1,5.5,0.0,0.0,1033.3
"2015-06-08 06:37:00",7.1,5.6,0.0,0.0,1033.3
"2015-06-08 06:38:00",7.1,5.6,0.0,0.0,1033.3
"2015-06-08 06:39:00",7.1,5.6,0.0,0.0,1033.3
"2015-06-08 06:40:00",7.1,5.6,0.0,0.0,1033.3
"2015-06-08 06:41:00",7.2,5.6,0.0,0.0,1033.3
"2015-06-08 06:42:00",7.2,5.6,0.0,0.0,1033.3
"2015-06-08 06:43:00",7.2,5.6,0.0,0.0,1033.3
"2015-06-08 06:44:00",7.2,5.7,0.0,0.0,1033.3
"2015-06-08 06:45:00",7.3,5.7,0.0,0.0,1033.3
"2015-06-08 06:46:00",7.3,5.8,0.0,0.0,1033.2
"2015-06-08 06:47:00",7.3,5.6,0.0,0.0,1033.3
"2015-06-08 06:48:00",7.4,5.8,0.0,0.0,1033.3
"2015-06-08 06:49:00",7.4,5.7,0.0,0.0,1033.3
"2015-06-08 06:50:00",7.4,5.7,0.0,0.0,1033.3
"2015-06-08 06:51:00",7.5,5.8,0.0,0.0,1033.3
"2015-06-08 06:52:00",7.5,5.8,0.0,0.0,1033.3
"2015-06-08 06:53:00",7.5,5.8,0.0,0.0,1033.3
"2015-06-08 06:54:00",7.6,5.9,0.0,0.0,1033.3
"2015-06-08 06:55:00",7.7,6.0,0.0,0.0,1033.3
"2015-06-08 06:56:00",7.7,6.0,0.0,0.0,1033.3
"2015-06-08 06:57:00",7.8,5.9,0.0,0.0,1033.3
"2015-06-08 06:58:00",7.8,6.0,0.0,0.0,1033.3
"2015-06-08 06:59:00",7.9,6.0,0.0,0.0,1033.3
"2015-06-08 07:00:00",8.0,6.1,0.0,0.0,1033.3
"2015-06-08 07:01:00",8.0,6.0,0.0,0.0,1033.3
"2015-06-08 07:02:00",8.0,6.0,0.0,0.0,1033.4
"2015-06-08 07:03:00",8.1,6.1,0.0,0.0,1033.4
"2015-06-08 07:04:00",8.1,5.9,0.0,0.5,1033.4
"2015-06-08 07:05:00",8.2,6.1,0.0,0.5,1033.4
"2015-06-08 07:06:00",8.2,6.2,0.0,0.5,1033.3
"2015-06-08 07:07:00",8.2,6.2,0.0,0.5,1033.3
"2015-06-08 07:08:00",8.3,6.3,0.0,0.5,1033.3
"2015-06-08 07:09:00",8.3,6.3,0.0,0.6,1033.3
"2015-06-08 07:10:00",8.4,6.2,0.0,0.6,1033.3
"2015-06-08 07:11:00",8.4,6.2,0.0,0.6,1033.3
"2015-06-08 07:12:00",8.5,6.3,0.0,0.6,1033.4
"2015-06-08 07:13:00",8.6,6.4,0.0,0.6,1033.3
"2015-06-08 07:14:00",8.7,6.4,0.0,0.7,1033.3
"2015-06-08 07:15:00",8.7,6.3,0.0,0.7,1033.3
"2015-06-08 07:16:00",8.8,6.4,0.0,0.7,1033.3
"2015-06-08 07:17:00",8.8,6.4,0.0,0.7,1033.3
"2015-06-08 07:18:00",8.9,6.5,0.0,0.7,1033.3
"2015-06-08 07:19:00",9.0,6.6,0.0,0.7,1033.3
"2015-06-08 07:20:00",9.0,6.4,0.0,0.7,1033.3
"2015-06-08 07:21:00",9.0,6.5,0.0,0.7,1033.3
"2015-06-08 07:22:00",9.1,6.5,0.0,0.8,1033.3
"2015-06-08 07:23:00",9.1,6.6,0.0,0.8,1033.3
"2015-06-08 07:24:00",9.2,6.6,0.0,0.8,1033.3
"2015-06-08 07:25:00",9.3,6.7,0.0,0.8,1033.3
"2015-06-08 07:26:00",9.4,6.7,0.0,0.8,1033.3
"2015-06-08 07:27:00",9.5,6.6,0.0,0.8,1033.3
"2015-06-08 07:28:00",9.5,6.6,0.0,0.8,1033.3
"2015-06-08 07:29:00",9.6,6.7,0.0,0.8,1033.3
"2015-06-08 07:30:00",9.7,6.7,0.0,0.8,1033.3
"2015-06-08 07:31:00",9.7,6.8,0.0,0.9,1033.3
"2015-06-08 07:32:00",9.8,6.9,0.0,0.9,1033.3
"2015-06-08 07:33:00",9.8,6.7,0.0,0.9,1033.3
"2015-06-08 07:34:00",9.9,6.8,0.0,0.9,1033.3
"2015-06-08 07:35:00",9.9,6.8,0.0,0.9,1033.3
"2015-06-08 07:36:00",9.9,6.8,0.0,0.9,1033.3
"2015-06-08 07:37:00",10.0,6.7,0.0,0.9,1033.4
"2015-06-08 07:38:00",10.0,6.9,0.0,1.0,1033.3
"2015-06-08 07:39:00",10.1,7.0,0.0,1.0,1033.4
"2015-06-08 07:40:00",10.1,7.0,0.0,1.0,1033.4
"2015-06-08 07:41:00",10.2,7.3,0.0,1.0,1033.4
"2015-06-08 07:42:00",10.3,7.2,0.0,1.0,1033.4
"2015-06-08 07:43:00",10.3,7.0,0.0,1.0,1033.3
"2015-06-08 07:44:00",10.3,7.0,0.0,1.0,1033.3
"2015-06-08 07:45:00",10.4,7.1,0.0,1.1,1033.3
"2015-06-08 07:46:00",10.4,7.1,0.0,1.1,1033.2
"2015-06-08 07:47:00",10.4,7.1,0.0,1.1,1033.2
"2015-06-08 07:48:00",10.4,7.1,0.0,1.1,1033.3
"2015-06-08 07:49:00",10.4,7.1,0.0,1.1,1033.3
"2015-06-08 07:50:00",10.4,7.0,0.0,1.1,1033.3
"2015-06-08 07:51:00",10.5,7.0,0.0,1.1,1033.3
"2015-06-08 07:52:00",10.6,7.1,0.0,1.1,1033.3
"2015-06-08 07:53:00",10.6,7.2,0.0,1.1,1033.3
"2015-06-08 07:54:00",10.7,7.4,0.0,1.0,1033.3
"2015-06-08 07:55:00",10.8,7.5,0.0,0.9,1033.3
"2015-06-08 07:56:00",10.8,7.3,0.0,1.0,1033.3
"2015-06-08 07:57:00",10.8,7.2,0.0,1.0,1033.3
"2015-06-08 07:58:00",10.9,7.2,0.0,0.9,1033.3
"2015-06-08 07:59:00",10.9,7.3,0.0,0.9,1033.3
"2015-06-08 08:00:00",10.9,7.2,0.0,1.1,1033.3
"2015-06-08 08:01:00",10.9,7.2,0.0,1.2,1033.3
"2015-06-08 08:02:00",10.9,7.2,0.0,1.2,1033.3
"2015-06-08 08:03:00",10.9,7.2,0.0,1.2,1033.3
"2015-06-08 08:04:00",10.8,7.1,0.0,1.0,1033.3
"2015-06-08 08:05:00",10.8,7.1,0.0,1.2,1033.3
"2015-06-08 08:06:00",10.8,7.1,0.0,1.1,1033.3
"2015-06-08 08:07:00",10.9,7.2,0.0,1.1,1033.3
"2015-06-08 08:08:00",11.0,7.1,0.0,1.2,1033.3
"2015-06-08 08:09:00",11.0,7.1,0.0,1.1,1033.3
"2015-06-08 08:10:00",11.0,7.2,0.0,1.1,1033.3
"2015-06-08 08:11:00",11.1,7.4,0.0,1.0,1033.3
"2015-06-08 08:12:00",11.2,7.5,0.0,0.9,1033.3
"2015-06-08 08:13:00",11.2,7.3,0.0,1.2,1033.3
"2015-06-08 08:14:00",11.2,7.3,0.0,1.0,1033.3
"2015-06-08 08:15:00",11.2,7.2,0.0,1.0,1033.3
"2015-06-08 08:16:00",11.3,7.4,0.0,1.2,1033.3
"2015-06-08 08:17:00",11.3,7.6,0.0,1.2,1033.3
"2015-06-08 08:18:00",11.3,7.6,0.0,1.1,1033.3
"2015-06-08 08:19:00",11.3,7.3,0.0,1.0,1033.3
"2015-06-08 08:20:00",11.3,7.4,0.0,1.0,1033.4
"2015-06-08 08:21:00",11.3,7.4,0.0,1.0,1033.4
"2015-06-08 08:22:00",11.3,7.2,0.0,1.0,1033.4
"2015-06-08 08:23:00",11.3,7.2,0.0,1.0,1033.3
"2015-06-08 08:24:00",11.3,7.4,0.0,1.0,1033.4
"2015-06-08 08:25:00",11.3,7.4,0.0,1.0,1033.4
"2015-06-08 08:26:00",11.4,7.5,0.0,1.0,1033.4
"2015-06-08 08:27:00",11.4,7.4,0.0,1.0,1033.3
"2015-06-08 08:28:00",11.5,7.6,0.0,1.0,1033.3
"2015-06-08 08:29:00",11.5,7.4,0.0,1.0,1033.3
"2015-06-08 08:30:00",11.6,7.5,0.0,1.0,1033.3
"2015-06-08 08:31:00",11.6,7.5,0.0,1.0,1033.4
"2015-06-08 08:32:00",11.6,7.7,0.0,1.0,1033.4
"2015-06-08 08:33:00",11.7,7.6,0.0,1.0,1033.4
"2015-06-08 08:34:00",11.7,7.6,0.0,1.0,1033.4
"2015-06-08 08:35:00",11.7,7.6,0.0,1.0,1033.4
"2015-06-08 08:36:00",11.7,7.4,0.0,1.0,1033.4
"2015-06-08 08:37:00",11.7,7.4,0.0,1.0,1033.4
"2015-06-08 08:38:00",11.8,7.7,0.0,1.0,1033.4
"2015-06-08 08:39:00",11.9,8.0,0.0,1.5,1033.4
"2015-06-08 08:40:00",12.0,8.3,0.0,1.5,1033.4
"2015-06-08 08:41:00",12.0,8.1,0.0,1.4,1033.4
"2015-06-08 08:42:00",12.1,8.0,0.0,1.1,1033.4
"2015-06-08 08:43:00",12.1,8.0,0.0,1.1,1033.4
"2015-06-08 08:44:00",12.1,7.6,0.0,1.1,1033.4
"2015-06-08 08:45:00",12.0,7.7,0.0,1.1,1033.4
"2015-06-08 08:46:00",12.1,8.0,0.0,1.1,1033.4
"2015-06-08 08:47:00",12.2,8.2,0.0,1.1,1033.4
"2015-06-08 08:48:00",12.2,8.1,0.0,1.1,1033.3
"2015-06-08 08:49:00",12.3,8.2,0.0,1.1,1033.3